Back to catalog

CZ-6A DEB

AlivePO
NORAD 61432·DEBRIS·🇨🇳 China

Launched Aug 6, 2024 from Taiyuan Satellite Launch Center

Loading…

Next Passes (next 24 hours)

TLE

FreshSource: Space-Track

Epoch: Sep 12, 2026, 12:39 UTC

1 61432U 24140YZ  26255.52766583  .00005042  00000-0  37028-3 0  9993
2 61432  89.0827 264.0003 0150421 183.6621 176.3526 14.94548271111577

Track CZ-6A DEB in real time with AllMySat

Download on the App Store